CW0179 Weather Reports


time (UTC)temp
C
wind
direction
speed
KPH
gust
KPH
rain 1hr
cm
rain 24hr
cm
rain mn
cm
humidity
%
barometer
mb
20260831231856 22 165 0.0 0.0 0.00 0.15 0.00 87 1017.5
20260831230822 22 165 0.0 0.0 0.00 0.15 0.00 87 1017.6
20260831225843 22 165 0.0 0.0 0.00 0.15 0.00 87 1017.6
20260831224902 22 165 0.0 0.0 0.00 0.15 0.00 86 1017.7
20260831223852 22 165 0.0 0.0 0.00 0.15 0.00 85 1017.6
20260831222912 23 165 0.0 0.0 0.00 0.15 0.00 85 1017.7
20260831220748 23 133 0.0 0.0 0.00 0.15 0.00 84 1017.7
20260831215810 23 132 0.0 0.0 0.00 0.15 0.00 82 1017.7
20260831214757 23 121 0.0 0.0 0.00 0.15 0.00 81 1017.8
20260831213734 23 120 0.0 0.0 0.00 0.15 0.00 80 1017.7
20260831212735 23 132 0.0 0.0 0.00 0.15 0.00 79 1017.7
20260831211747 24 86 0.0 0.0 0.00 0.15 0.00 79 1017.6
20260831205624 25 86 0.0 0.0 0.00 0.15 0.00 77 1017.7
20260831204635 25 54 0.0 3.2 0.00 0.15 0.00 75 1017.7
20260831203621 25 110 0.0 0.0 0.00 0.15 0.00 75 1017.6
20260831202635 25 354 0.0 0.0 0.00 0.15 0.00 75 1017.7
20260831201628 25 354 0.0 0.0 0.00 0.15 0.00 75 1017.8
20260831200651 25 354 0.0 0.0 0.00 0.15 0.00 74 1017.9
20260831195712 26 354 0.0 0.0 0.00 0.15 0.00 71 1018.1
20260831194653 26 218 0.0 3.2 0.00 0.15 0.00 69 1018.1
20260831193642 26 155 0.0 0.0 0.00 0.15 0.00 69 1018.1
20260831192656 26 150 0.0 0.0 0.00 0.15 0.00 67 1018.1
20260831191627 27 78 0.0 11.3 0.00 0.15 0.00 66 1018.4
20260831190640 27 104 0.0 3.2 0.00 0.15 0.00 67 1018.6
20260831185645 27 122 0.0 1.6 0.00 0.15 0.00 66 1018.5
20260831184645 27 57 0.0 3.2 0.00 0.15 0.00 64 1018.4
20260831183649 27 340 0.0 4.8 0.00 0.15 0.00 64 1018.6
20260831182629 27 349 0.0 4.8 0.00 0.15 0.00 61 1018.8
20260831181605 26 235 0.0 3.2 0.00 0.15 0.00 60 1018.9
20260831180543 26 197 0.0 4.8 0.00 0.15 0.00 59 1019.1
20260831175521 26 349 0.0 6.4 0.00 0.15 0.00 61 1019.2
20260831174541 26 110 0.0 0.0 0.00 0.15 0.00 62 1019.2
20260831173534 26 89 0.0 1.6 0.00 0.15 0.00 61 1019.1
20260831172516 26 89 0.0 8.0 0.00 0.15 0.00 60 1019.0
20260831170340 26 132 0.0 0.0 0.00 0.15 0.00 65 1019.1
20260831165400 26 103 0.0 8.0 0.00 0.15 0.00 64 1019.1
20260831164415 25 181 1.6 8.0 0.00 0.15 0.00 66 1019.2
20260831163436 26 287 0.0 6.4 0.00 0.15 0.00 65 1019.4
20260831162439 26 118 0.0 8.0 0.00 0.15 0.00 63 1019.5
20260831161415 26 355 0.0 8.0 0.00 0.15 0.00 64 1019.5
20260831160437 26 265 0.0 3.2 0.00 0.15 0.00 67 1019.5
20260831155405 25 107 0.0 3.2 0.00 0.15 0.00 65 1019.4
20260831154347 25 84 0.0 3.2 0.00 0.15 0.00 68 1019.5
20260831153320 25 105 0.0 3.2 0.00 0.15 0.00 67 1019.6
20260831152323 25 129 0.0 8.0 0.00 0.15 0.00 69 1019.5
20260831151341 26 111 0.0 8.0 0.00 0.15 0.00 68 1019.5
20260831150330 26 14 0.0 3.2 0.00 0.15 0.00 67 1019.5
20260831145327 25 154 0.0 3.2 0.00 0.15 0.00 61 1019.5
20260831143229 25 190 0.0 0.0 0.00 0.15 0.00 72 1019.5
20260831142240 24 263 1.6 6.4 0.00 0.15 0.00 73 1019.4
20260831140120 23 33 0.0 3.2 0.00 0.15 0.00 77 1019.3
20260831135058 23 235 0.0 1.6 0.00 0.15 0.00 80 1019.3
20260831134106 23 160 0.0 4.8 0.00 0.15 0.00 80 1019.3
20260831133046 23 200 0.0 3.2 0.00 0.15 0.00 83 1019.3
20260831132052 22 305 0.0 6.4 0.00 0.15 0.00 84 1019.3
20260831131025 22 82 0.0 1.6 0.00 0.15 0.00 88 1019.1
20260831130002 21 153 0.0 0.0 0.00 0.15 0.00 89 1019.1
20260831125000 21 183 0.0 0.0 0.00 0.15 0.00 90 1019.3
20260831123942 21 183 0.0 0.0 0.00 0.15 0.00 90 1019.2
20260831121829 20 218 0.0 0.0 0.00 0.15 0.00 92 1019.2
20260831120802 20 184 0.0 0.0 0.00 0.15 0.00 95 1019.2
20260831115748 19 191 0.0 0.0 0.00 0.15 0.00 95 1019.2
20260831114715 19 166 0.0 0.0 0.00 0.15 0.00 96 1019.0
20260831113719 18 184 0.0 0.0 0.00 0.15 0.00 97 1019.0
20260831082506 18 169 0.0 0.0 0.00 0.15 0.00 98 1018.0
20260831081504 19 172 0.0 0.0 0.00 0.15 0.00 98 1017.9
20260831080504 19 170 0.0 0.0 0.00 0.15 0.00 98 1018.0
20260831075521 19 172 0.0 0.0 0.00 0.15 0.00 98 1017.8
20260831074508 19 172 0.0 0.0 0.00 0.15 0.00 98 1017.9
20260831073443 19 172 0.0 0.0 0.00 0.15 0.00 98 1017.9
20260831072409 19 172 0.0 0.0 0.00 0.15 0.00 98 1018.0
20260831071430 19 172 0.0 0.0 0.00 0.15 0.00 98 1017.9
20260831070430 20 172 0.0 0.0 0.00 0.15 0.00 98 1018.1
20260831065448 20 172 0.0 0.0 0.00 0.15 0.00 97 1018.0
20260831064437 20 172 0.0 0.0 0.00 0.15 0.00 97 1017.9
20260831063421 20 172 0.0 0.0 0.00 0.15 0.00 97 1017.8
20260831061309 20 172 0.0 0.0 0.00 0.15 0.00 97 1017.8
20260831060331 20 172 0.0 1.6 0.00 0.15 0.00 97 1017.8
20260831055344 21 155 0.0 0.0 0.00 0.15 0.00 97 1017.7
20260831054407 21 155 0.0 0.0 0.00 0.15 0.00 98 1017.5
20260831053403 21 155 0.0 0.0 0.00 0.15 0.00 98 1017.5
20260831052406 21 155 0.0 0.0 0.00 0.15 0.00 97 1017.4
20260831051419 21 155 0.0 0.0 0.00 0.15 0.00 98 1017.4
20260831050439 21 155 0.0 0.0 0.00 0.15 0.00 98 1017.4
20260831044257 21 155 0.0 0.0 0.00 0.15 0.00 98 1017.3
20260831043228 21 155 0.0 0.0 0.00 0.15 0.00 98 1017.3
20260831042237 21 155 0.0 0.0 0.00 0.15 0.00 98 1017.2
20260831041300 21 155 0.0 0.0 0.00 0.15 0.00 98 1017.3
20260831040321 21 155 0.0 0.0 0.00 0.15 0.00 97 1017.1
20260831035252 21 155 0.0 0.0 0.00 0.15 0.15 97 1017.2
20260831034249 21 155 0.0 0.0 0.00 0.15 0.15 97 1017.2
20260831033230 21 155 0.0 0.0 0.00 0.15 0.15 97 1017.4
20260831032209 22 155 0.0 0.0 0.00 0.15 0.15 97 1017.6
20260831030031 22 155 0.0 0.0 0.00 0.15 0.15 97 1017.8
20260831025035 22 155 0.0 0.0 0.00 0.15 0.15 97 1017.8
20260831024017 22 155 0.0 0.0 0.00 0.15 0.15 97 1017.7
20260831023007 22 155 0.0 0.0 0.00 0.15 0.15 97 1017.8
20260831021950 22 155 0.0 0.0 0.00 0.15 0.15 97 1017.8
20260831020945 22 155 0.0 0.0 0.00 0.15 0.15 97 1017.8
20260831015957 22 155 0.0 0.0 0.00 0.15 0.15 96 1017.8
20260831015011 22 155 0.0 0.0 0.13 0.15 0.15 96 1017.7
20260831014022 22 155 0.0 0.0 0.13 0.10 0.15 96 1017.7
20260831013042 22 155 0.0 0.0 0.10 0.10 0.13 96 1017.7
20260831012016 22 80 0.0 0.0 0.10 0.10 0.10 96 1017.6
20260831011033 22 80 0.0 0.0 0.10 0.08 0.10 95 1017.6
20260831004849 22 150 0.0 0.0 0.10 0.05 0.05 95 1017.4
20260831003904 22 150 0.0 0.0 0.00 0.03 0.03 94 1017.4
20260831002909 23 151 0.0 0.0 0.00 0.00 0.03 93 1017.2
20260831000758 23 150 0.0 0.0 0.00 0.00 0.00 91 1016.9
20260830235750 23 150 0.0 0.0 0.00 0.00 0.00 91 1016.8
20260830234728 23 150 0.0 0.0 0.00 0.00 0.00 90 1016.6
20260830233657 23 150 0.0 0.0 0.00 0.00 0.00 89 1016.6
20260830232707 23 150 0.0 0.0 0.00 0.00 0.00 88 1016.5